Weather History for PANT - March, 2014

Change the Weather History Date:

Monday, March 10, 2014

  Actual Average Record
Temperature  
Mean Temperature 38 °F 39 °F  
Max Temperature 43 °F 44 °F 60 °F (1970)
Min Temperature 32 °F 34 °F 12 °F (1951)
Degree Days  
Heating Degree Days 27 26  
Month to date heating degree days 337 265  
Since 1 July heating degree days 4826 4803  
Cooling Degree Days 0    
Month to date cooling degree days 0  
Year to date cooling degree days 0  
Moisture  
Dew Point 37 °F    
Average Humidity 0    
Maximum Humidity 0    
Minimum Humidity 0    
Precipitation  
Precipitation 0.24 in 0.25 in 2.43 in (1959)
Month to date precipitation 3.15 2.48  
Year to date precipitation 15.25 20.52  
Snow  
Snow 0.00 in 0.30 in 5.50 in (1960)
Month to date snowfall 0.0 2.7  
Since 1 July snowfall 25.1 29.2  
Snow Depth 0.00 in    
Sea Level Pressure  
Sea Level Pressure 30.04 in    
Wind  
Wind Speed 10 mph (SE)    
Max Wind Speed 24 mph    
Max Gust Speed 38 mph    
Visibility 10 miles    
Events Rain    
T = Trace of Precipitation, MM = Missing Value Source: NWS Daily Summary

Daily Weather History Graph

Daily Weather History Graph

Search for Another Location

Airport or City:

Trip Planner

Search our weather history database for the weather conditions in past years. The results will help you decide how hot, cold, wet, or windy it might be!

Date:

Astronomy

Mar. 10, 2014 Rise Set
Actual Time 7:13 AM AKDT 6:40 PM AKDT
Civil Twilight 6:37 AM AKDT 7:16 PM AKDT
Nautical Twilight 5:55 AM AKDT 7:58 PM AKDT
Astronomical Twilight 5:12 AM AKDT 8:42 PM AKDT
Moon 12:50 PM AKDT (3/10) 4:11 AM AKDT (3/10)
Length of Visible Light 12h 39m
Length of Day
11h 27m
Waxing Gibbous, 71% of the Moon is Illuminated
Mar 10
Waxing Gibbous
Mar 16
Full
Mar 23
Last Quarter
Mar 30
New
Apr 7
First Quarter

Hourly Weather History & Observations

Time (AKDT) Temp. Windchill Dew Point Humidity Pressure Visibility Wind Dir Wind Speed Gust Speed Precip Events Conditions
12:37 AM 36.0 °F - 36.0 °F 100% 29.89 in 10.0 mi Calm Calm - 0.03 in Rain Light Rain
12:53 AM 37.0 °F - 37.0 °F 100% 29.90 in 10.0 mi Calm Calm - 0.03 in Rain Light Rain
1:53 AM 37.0 °F - 37.0 °F 100% 29.91 in 10.0 mi Calm Calm - 0.02 in   Overcast
2:16 AM 37.0 °F - 37.0 °F 100% 29.91 in 10.0 mi Calm Calm - 0.00 in   Overcast
2:53 AM 36.0 °F 33.3 °F 36.0 °F 100% 29.92 in 10.0 mi ESE 3.5 mph - 0.00 in   Overcast
3:53 AM 35.1 °F - 35.1 °F 100% 29.93 in 10.0 mi Calm Calm - N/A   Mostly Cloudy
4:53 AM 33.1 °F - 33.1 °F 100% 29.94 in 10.0 mi Calm Calm - N/A   Partly Cloudy
5:11 AM 32.0 °F - 32.0 °F 100% 29.95 in 10.0 mi Calm Calm - N/A   Mostly Cloudy
5:43 AM 33.1 °F 28.7 °F 33.1 °F 100% 29.96 in 10.0 mi SE 4.6 mph - N/A   Overcast
5:53 AM 34.0 °F 29.8 °F 34.0 °F 100% 29.97 in 10.0 mi SE 4.6 mph - N/A   Overcast
6:04 AM 34.0 °F 29.8 °F 34.0 °F 100% 29.96 in 10.0 mi SE 4.6 mph - N/A   Overcast
6:24 AM 35.1 °F 32.2 °F 35.1 °F 100% 29.97 in 10.0 mi SE 3.5 mph - N/A   Overcast
6:53 AM 36.0 °F 32.1 °F 36.0 °F 100% 29.99 in 10.0 mi SE 4.6 mph - 0.00 in Rain Light Rain
7:03 AM 36.0 °F 32.1 °F 36.0 °F 100% 29.98 in 8.0 mi SE 4.6 mph - 0.01 in Rain Light Rain
7:10 AM 36.0 °F 32.1 °F 36.0 °F 100% 29.99 in 9.0 mi SE 4.6 mph - 0.01 in Rain Light Rain
7:30 AM 36.0 °F 32.1 °F 36.0 °F 100% 29.99 in 10.0 mi ESE 4.6 mph - 0.01 in Rain Light Rain
7:37 AM 35.1 °F 32.2 °F 35.1 °F 100% 29.99 in 10.0 mi ESE 3.5 mph - 0.01 in   Mostly Cloudy
7:41 AM 36.0 °F 33.3 °F 36.0 °F 100% 29.99 in 10.0 mi SE 3.5 mph - 0.01 in   Mostly Cloudy
7:53 AM 35.1 °F 32.2 °F 35.1 °F 100% 30.01 in 10.0 mi ESE 3.5 mph - 0.01 in   Mostly Cloudy
8:53 AM 37.0 °F 31.6 °F 37.0 °F 100% 30.04 in 10.0 mi SE 6.9 mph - N/A   Overcast
9:14 AM 37.9 °F 32.7 °F 37.9 °F 100% 30.03 in 10.0 mi SE 6.9 mph - 0.00 in Rain Light Rain
9:53 AM 37.9 °F 33.5 °F 37.9 °F 100% 30.06 in 10.0 mi SE 5.8 mph - 0.00 in   Overcast
10:21 AM 39.9 °F 35.1 °F 39.9 °F 100% 30.06 in 10.0 mi SE 6.9 mph - N/A   Mostly Cloudy
10:30 AM 39.9 °F 34.5 °F 39.9 °F 100% 30.07 in 10.0 mi SE 8.1 mph - N/A   Overcast
10:53 AM 41.0 °F 38.0 °F 39.9 °F 96% 30.08 in 10.0 mi South 4.6 mph - N/A   Overcast
11:14 AM 41.0 °F 35.8 °F 39.9 °F 96% 30.08 in 10.0 mi South 8.1 mph - N/A   Mostly Cloudy
11:25 AM 41.0 °F 37.1 °F 39.9 °F 96% 30.09 in 9.0 mi SSE 5.8 mph - 0.00 in Rain Light Rain
11:51 AM 41.0 °F 36.4 °F 39.2 °F 93% 30.09 in 10.0 mi SSE 6.9 mph - 0.00 in   Overcast
11:53 AM 41.0 °F 36.4 °F 39.0 °F 93% 30.10 in 10.0 mi SSE 6.9 mph - 0.00 in   Overcast
12:53 PM 42.1 °F 37.7 °F 39.0 °F 89% 30.11 in 10.0 mi SSE 6.9 mph - N/A   Mostly Cloudy
1:53 PM 42.1 °F 37.7 °F 39.0 °F 89% 30.13 in 10.0 mi Variable 6.9 mph - N/A   Mostly Cloudy
2:53 PM 42.1 °F 35.7 °F 39.9 °F 92% 30.14 in 10.0 mi SSE 11.5 mph - N/A   Mostly Cloudy
3:53 PM 42.1 °F 35.2 °F 39.0 °F 89% 30.15 in 10.0 mi SSE 12.7 mph 19.6 mph N/A   Mostly Cloudy
4:53 PM 42.1 °F 35.2 °F 37.9 °F 85% 30.15 in 10.0 mi SE 12.7 mph - N/A   Mostly Cloudy
5:53 PM 41.0 °F 33.5 °F 37.0 °F 86% 30.14 in 10.0 mi SE 13.8 mph 23.0 mph N/A   Overcast
6:53 PM 41.0 °F 33.5 °F 37.9 °F 89% 30.14 in 10.0 mi SE 13.8 mph 24.2 mph N/A   Overcast
7:53 PM 41.0 °F 32.5 °F 37.9 °F 89% 30.14 in 10.0 mi SSE 17.3 mph 28.8 mph 0.00 in Rain Light Rain
8:30 PM 39.9 °F 31.4 °F 37.9 °F 93% 30.14 in 10.0 mi SSE 16.1 mph 28.8 mph 0.01 in Rain Light Rain
8:53 PM 39.9 °F 32.1 °F 39.0 °F 97% 30.16 in 7.0 mi SSE 13.8 mph 28.8 mph 0.04 in Rain Light Rain
9:53 PM 39.9 °F 30.5 °F 39.0 °F 97% 30.14 in 7.0 mi SE 19.6 mph 34.5 mph 0.08 in Rain Light Rain
10:01 PM 39.9 °F 31.1 °F 39.9 °F 100% 30.14 in 8.0 mi SE 17.3 mph 29.9 mph 0.00 in Rain Light Rain
10:53 PM 39.9 °F 30.5 °F 39.0 °F 97% 30.13 in 9.0 mi SE 19.6 mph 38.0 mph 0.04 in Rain Light Rain
11:48 PM 39.2 °F 28.7 °F 39.2 °F 100% 30.11 in 10.0 mi SE 23.0 mph 34.5 mph 0.03 in Rain Light Rain
11:53 PM 39.9 °F 30.0 °F 39.0 °F 97% 30.11 in 10.0 mi SE 21.9 mph 32.2 mph 0.04 in Rain Light Rain